Tracking 21470 objects as of 23-Sep-2020
HD Live streaming from Space Station
objects crossing your sky now

SL-8 DEB

Track SL-8 DEB now!
10-day predictions


NORAD ID: 21958
Int'l Code: 1991-009CG
Perigee: 1,507.4 km
Apogee: 1,720.6 km
Inclination: 74.0 °
Period: 118.4 minutes
Semi major axis: 7984 km
RCS: 0.0969 m2 (small)
Launch date: February 12, 1991
Source: Commonwealth of Independent States (former USSR) (CIS)
Launch site: PLESETSK MISSILE AND SPACE COMPLEX (PKMTR)

Note: This is SATELLITE DEBRIS
aabbcc
Your satellite tracking list
Your tracking list is empty




NASA's NSSDC Master Catalog

Two Line Element Set (TLE):
1 21958U 91009CG  20267.44057201 +.00000086 +00000-0 +99303-3 0  9995
2 21958 073.9653 319.1911 0133516 214.1525 157.1579 12.16726279312233
Source of the keplerian elements: AFSPC